Regional Weather Roundup
Issued by NWS

Home | Current Version | Previous Version | Text Only | Print | Product List | Glossary Off
Versions: 1 2 3 4 5 6 7 8 9 10 11 12 13 14 15 16 17 18 19 20 21 22 23 24 25 26 27 28 29 30 31 32 33 34 35 36 37 38 39 40 41 42 43 44 45 46 47 48 49 50

000
ASUS43 KMPX 222101
RWRMN
WEATHER ROUNDUP FOR MINNESOTA
NATIONAL WEATHER SERVICE TWIN CITIES/CHANHASSEN MN
400 PM CDT WED OCT 22 2014


NOTE: "FAIR" INDICATES FEW OR NO CLOUDS BELOW 12,000 FEET WITH NO
SIGNIFICANT WEATHER AND/OR OBSTRUCTIONS TO VISIBILITY. N/A MEANS
CURRENT SKY AND/OR WEATHER CONDITIONS ARE NOT AVAILABLE.

MNZ060>063-068>070-222200-
   Twin Cities Metro

CITY           SKY/WX    TMP DP  RH WIND       PRES   REMARKS
TWIN CITIES    MOSUNNY   60  41  49 SE24G30   30.07F
ST PAUL        SUNNY     59  42  53 SE13G29   30.09F
CRYSTAL        MOSUNNY   62  42  47 SE18G31   30.05F
BLAINE         MOSUNNY   61  43  51 SE21G28   30.06F
LAKEVILLE      MOSUNNY   57  43  58 SE12G21   30.08S
EDEN PRAIRIE   MOSUNNY   62  43  49 SE22G28   30.05F
SOUTH ST PAUL  MOSUNNY   60  40  48 SE13G20   30.09F
LAKE ELMO      PTSUNNY   59  41  51 SE13      30.10F
$$
MNZ001>005-007-008-013>017-022>024-027-028-222200-
   Northwest Minnesota

CITY           SKY/WX    TMP DP  RH WIND       PRES   REMARKS
BEMIDJI        CLOUDY    59  44  57 S17G23    29.90S
HALLOCK        CLOUDY    63  46  55 S22       29.78R
ROSEAU         PTSUNNY   63  48  59 S17G28    29.82R
WARROAD        PTSUNNY   63  48  59 S13       29.83R
THIEF RVR FALL CLOUDY    63  46  55 S15G24    29.83R
CROOKSTON      CLOUDY    64  48  55 S24G30    29.83S
FOSSTON        CLOUDY    61  45  55 S20G28    29.87S
DETROIT LAKES  CLOUDY    61  45  55 S15G22    29.90S
MOORHEAD       CLOUDY    66  52  59 S16       29.85R
PARK RAPIDS    CLOUDY    60  43  53 S20       29.92F
MAHNOMEN       CLOUDY    61  45  56 S17G30    29.87S
$$
MNZ006-009>011-018-025>026-222200-
   North Central Minnesota

CITY           SKY/WX    TMP DP  RH WIND       PRES   REMARKS
BAUDETTE       PTSUNNY   61  44  53 S20G28    29.86F
FLAG ISLAND    PTSUNNY   54  46  76 S15       29.82R
INTL FALLS     PTSUNNY   61  43  51 S9G23     29.91F
WASKISH        MOSUNNY   61  45  55 S8G22     29.89F
BIG FORK       MOSUNNY   61  43  51 S17G23    29.95R
LONGVILLE      PTSUNNY   59  43  55 S13G22    29.96S
GRAND RAPIDS   MOSUNNY   57  39  51 SE16G24   29.98S
CRANE LAKE     PTSUNNY   57  39  51 SE10G22   29.99F
ORR            MOSUNNY   59  37  44 SE17G24   29.95S
COOK           PTSUNNY   57  41  54 SE12G17   29.99F
WALKER         FAIR      58  42  54 S16G24    29.93S
$$
MNZ012-019>021-037-222200-
   Northeast Minnesota

CITY           SKY/WX    TMP DP  RH WIND       PRES   REMARKS
DULUTH         PTSUNNY   55  40  56 SE12      30.06F
ELY            CLOUDY    55  36  47 SE16      30.05S
HIBBING        CLOUDY    58  39  49 S16G22    30.01F
EVELETH        MOSUNNY   57  39  51 SE15G23   30.03F
DULUTH HARBOR  CLOUDY    59  39  47 S14       30.09F
TWO HARBORS    PTSUNNY   55  28  35 E8        30.08F
SILVER BAY     SUNNY     52  39  62 E8        30.10F
GRAND MARAIS     N/A     47  39  74 NE8       30.18F
G MARAIS ARPRT SUNNY     45  30  57 S7        30.16S
$$
MNZ029>031-032-039>041-046>048-054>057-064-222200-
   West Central Minnesota

CITY           SKY/WX    TMP DP  RH WIND       PRES   REMARKS
FERGUS FALLS   CLOUDY    66  45  45 S17G24    29.89S
WHEATON        PTSUNNY   64  48  55 S12       29.89S
MORRIS         CLOUDY    66  48  52 S16G22    29.90S
ALEXANDRIA     PTSUNNY   62  45  53 S20G25    29.95S
ELBOW LAKE     FAIR      65  47  52 S18G26    29.89S
WADENA         CLOUDY    59  45  58 S15       29.93S
GLENWOOD       PTSUNNY   63  46  55 SE15G21   29.95S
APPLETON       CLOUDY    70  46  43 S10G23    29.90F
BENSON         CLOUDY    66  48  52 S16G24    29.92S
ORTONVILLE     CLOUDY    68  48  49 SW6       29.89S
MADISON        CLOUDY    73  52  46 SW12G18   29.90S
WILLMAR        FAIR      66  43  42 S16G25    29.96F
$$
MNZ033>034-036-042>043-049>051-058-059-222200-
   Central Minnesota

CITY           SKY/WX    TMP DP  RH WIND       PRES   REMARKS
ST CLOUD       MOSUNNY   63  43  48 SE22      30.00F
SAUK CENTRE    MOCLDY    62  45  53 SE17G23   29.95F
PAYNESVILLE    MOSUNNY   61  43  51 E14G21    29.97S
AITKIN         MOSUNNY   59  43  55 S14G26    29.99S
PINE RIVER     PTSUNNY   57  45  62 S13G23    30.00S
BRAINERD       PTSUNNY   57  42  57 S14G21    29.99S
STAPLES        PTSUNNY   57  43  58 SE13G20   29.95F
LONG PRAIRIE   FAIR      59  45  58 SE16G22   29.95F
LITTLE FALLS   PTSUNNY   59  41  51 SE13G24   29.99S
LITCHFIELD     MOSUNNY   64  45  48 SE9G17    29.99S
BUFFALO        MOSUNNY   62  42  49 SE12G21   30.03F
MAPLE LAKE     MOSUNNY   62  46  54 SE10G18   30.02F
$$
MNZ037-044-045-052-053-222200-
   East Central Minnesota

CITY           SKY/WX    TMP DP  RH WIND       PRES   REMARKS
PRINCETON      MOSUNNY   61  43  51 SE16G24   30.03F
MORA           MOSUNNY   54  37  54 SE10G20   30.07S
CAMBRIDGE      MOSUNNY   61  43  51 SE10G22   30.04S
RUSH CITY      PTSUNNY   57  40  51 SE16G24   30.07F
MOOSE LAKE     PTSUNNY   55  37  50 S8G18     30.03F
HINCKLEY       MOCLDY    55  41  58 SE13G18   30.06F
CLOQUET        MOSUNNY   55  37  50 SE10G16   30.06F
MCGREGOR       MOSUNNY   57  41  54 S18G24    30.02F
$$
MNZ071>073-080-081-089-090-097-098-222200-
   Southwest Minnesota

CITY           SKY/WX    TMP DP  RH WIND       PRES   REMARKS
MONTEVIDEO     CLOUDY    68  46  45 S12G17    29.92F
GRANITE FALLS  CLOUDY    68  47  48 SE16G22   29.94S
CANBY          CLOUDY    69  50  50 SW10      29.91F
MARSHALL       CLOUDY    70  48  46 S14       29.91F
REDWOOD FALLS  CLOUDY    67  45  45 SE21      29.95F
OLIVIA         CLOUDY    64  45  48 S20G29    29.96S
PIPESTONE      PTSUNNY   72  50  46 SW20      29.92F
WINDOM         CLOUDY    66  46  48 SE16G25   29.97F
WORTHINGTON    PTSUNNY   72  48  43 S16G29    29.95F
JACKSON        CLOUDY    66  43  42 SE18G24   30.00F
TRACY          CLOUDY    72  48  43 S17G25    29.94S
SLAYTON        CLOUDY    72  47  41 S20G26    29.94S
$$
MNZ065>067-074>077-082>085-091>093-222200-
   South Central Minnesota

CITY           SKY/WX    TMP DP  RH WIND       PRES   REMARKS
MANKATO        PTSUNNY   63  41  45 SE20G30   30.04S
NEW ULM        PTSUNNY   64  46  52 S18G28    30.00S
ST JAMES       CLOUDY    64  45  48 SE23      30.02S
FAIRMONT       PTSUNNY   63  43  48 S25       30.03S
GLENCOE        MOSUNNY   64  46  52 SE16G25   30.01F
FARIBAULT      MOSUNNY   61  43  51 SE18G24   30.08F
OWATONNA       MOSUNNY   61  41  48 SE18G25   30.08F
WASECA         MOSUNNY   59  37  44 SE23G29   30.08F
ALBERT LEA     MOSUNNY   61  43  51 SE21G28   30.09F
$$
MNZ078>079-086>088-094>096-222200-
   Southeast Minnesota

CITY           SKY/WX    TMP DP  RH WIND       PRES   REMARKS
ROCHESTER      MOSUNNY   58  40  51 S17G26    30.15F
STANTON        MOSUNNY   61  41  47 S13G18    30.08F
DODGE CENTER   MOSUNNY   59  43  55 S17       30.12F
WINONA         PTSUNNY   59  37  44 S6        30.18F
AUSTIN         PTSUNNY   57  41  54 S16G22    30.13S
PRESTON        PTSUNNY   57  39  52 SE17G25   30.16F
$$
ABBREVIATIONS USED IN REMARKS
   TC - TEMPERATURES IN CELSIUS
  WCI - WIND CHILL INDEX
   HX - HEAT INDEX
  VSB - VISIBILITY
$$



USA.gov is the U.S. government's official web portal to all federal, state and local government web resources and services.